Regional Weather Roundup
Issued by NWS Upton, NY

Current Version | Previous Version | Graphics & Text | Print | Product List | Glossary Off
Versions: 1 2 3 4 5 6 7 8 9 10 11 12 13 14 15 16 17 18 19 20 21 22 23 24 25 26 27 28 29 30 31 32 33 34 35 36 37 38 39 40 41 42 43 44 45 46 47 48 49 50

000
ASUS41 KOKX 201205
RWROKX

REGIONAL WEATHER ROUNDUP
NATIONAL WEATHER SERVICE NEW YORK NY
700 AM EST SAT DEC 20 2014

NOTE: "FAIR" INDICATES FEW OR NO CLOUDS BELOW 12,000 FEET WITH NO
SIGNIFICANT WEATHER AND/OR OBSTRUCTIONS TO VISIBILITY.

NYZ071-072-176-178-NJZ106-104-201300-
NEW YORK CITY METRO AREA


CITY           SKY/WX    TMP DP  RH WIND       PRES   REMARKS
CENTRAL PARK   CLOUDY    31  19  61 VRB6      30.28R WCI  25
LAGUARDIA APRT CLOUDY    31  21  66 N9        30.27R WCI  23
KENNEDY INTL   CLOUDY    32  20  61 N12       30.28R WCI  23
NEWARK/LIBERTY CLOUDY    32  21  64 NW9       30.27R WCI  24
BRNX BOT. GARD   N/A    N/A N/A N/A W2        30.27F
TETERBORO      CLOUDY    32  20  61 N6        30.27R WCI  26
$$

NYZ177-179-078>081-201300-
LONG ISLAND NEW YORK

CITY           SKY/WX    TMP DP  RH WIND       PRES   REMARKS
FARMINGDALE    CLOUDY    31  21  66 N6        30.27R WCI  25
ISLIP          CLOUDY    32  21  64 N5        30.24R WCI  27
SHIRLEY        CLOUDY    32  22  66 N5        30.26R WCI  27
WESTHAMPTON    CLOUDY    31  21  66 N7        30.27R WCI  24
MONTAUK POINT    N/A     33  24  69 N3        30.25R
$$

NYZ052-065-067-201300-
HUDSON VALLEY

CITY           SKY/WX    TMP DP  RH WIND       PRES   REMARKS
WHITE PLAINS   CLOUDY    28  19  69 N6        30.24R WCI  22
NEWBURGH       CLOUDY    27  21  80 NE12      30.27R WCI  16
MONTGOMERY     CLOUDY    28  20  71 NE8       30.26R WCI  20
POUGHKEEPSIE   CLOUDY    29  18  63 N8        30.28R WCI  21
ALBANY         MOCLDY    24  15  68 N6        30.31R WCI  17
$$

NJZ001-105-106-008-010-013-015-019>022-104-201300-
NEW JERSEY

CITY           SKY/WX    TMP DP  RH WIND       PRES   REMARKS
NEWARK/LIBERTY CLOUDY    32  21  64 NW9       30.27R WCI  24
TETERBORO      CLOUDY    32  20  61 N6        30.27R WCI  26
CALDWELL       CLOUDY    30  20  66 CALM      30.27R
MORRISTOWN     CLOUDY    30  23  74 NW7       30.27R WCI  23
SOMERVILLE     CLOUDY    31  19  61 N7        30.26R WCI  24
SUSSEX         CLOUDY    29  20  69 NE5       30.25R WCI  24
ANDOVER          N/A     28  20  71 N5        30.24S WCI  23
TRENTON        CLOUDY    30  19  63 NE7       30.25S WCI  23
MILLVILLE      CLOUDY    31  26  82 CALM      30.26R
ATLANTIC CITY  CLOUDY    30  24  78 CALM      30.26R
WRIGHTSTOWN    CLOUDY    31  22  69 N8        30.24R WCI  24
TOMS RIVER     CLOUDY    30  21  69 N7        30.26S WCI  23
BELMAR         CLOUDY    30  18  59 NW7       30.25R WCI  23
$$

PAZ047>061-062-071-201300-
EASTERN PENNSYLVANIA

CITY           SKY/WX    TMP DP  RH WIND       PRES   REMARKS
PHILADELPHIA   CLOUDY    33  22  63 N9        30.27R WCI  25
ALLENTOWN      CLOUDY    31  20  63 N8        30.25S WCI  23
SCRANTON       CLOUDY    30  21  69 N3        30.22S
$$

CTZ002-004>006-009-010-012-RIZ004-006-007-MAZ004-011-015-201300-
SOUTHERN NEW ENGLAND
 IN CT

CITY           SKY/WX    TMP DP  RH WIND       PRES   REMARKS
BRADLEY INTL   MOCLDY    26  18  71 N8        30.26R WCI  18
HARTFORD       PTCLDY    26  18  71 VRB6      30.28R WCI  19
DANBURY        CLOUDY    27  17  66 N6        30.26R WCI  20
WTRBRY/OXFORD  CLEAR     25  14  63 N3        30.24R
BRIDGEPORT     CLOUDY    31  21  66 N6        30.27R WCI  25
MERIDEN        CLOUDY    26  20  77 NW3       30.27R
NEW HAVEN      PTCLDY    29  20  69 N5        30.27R WCI  24
CHESTER        FAIR      27  21  80 NW6       30.24R WCI  20
GROTON         CLOUDY    27  21  78 N7        30.25R WCI  19
WILLIMANTIC    CLOUDY    26  21  81 CALM      30.26R

 IN RI

CITY           SKY/WX    TMP DP  RH WIND       PRES   REMARKS
PROVIDENCE     CLOUDY    30  21  69 N8        30.24R WCI  22
BLOCK ISLAND   CLOUDY    32  23  69 N5        30.23R WCI  27
WESTERLY       CLOUDY    28  22  78 N6        30.25R WCI  22

 IN MA

CITY           SKY/WX    TMP DP  RH WIND       PRES   REMARKS
BOSTON         CLEAR     27  20  75 N5        30.26R WCI  22
WORCESTER      CLOUDY    25  18  74 N7        30.21R WCI  17
WESTFIELD      CLOUDY    24  18  77 N6        30.27R WCI  17
PROVINCETOWN   CLOUDY    37  28  70 NE7G16    30.21R WCI  32
NANTUCKET      CLOUDY    36  31  82 NW7       30.20R WCI  30
$$

ANZ330-335-338-340-345-350-353-355-201300-
COASTAL MARINE OBSERVATIONS


STATION/POSITION TIME  SKY/WX   TEMP    WIND        PRES    VSBY  WAVE
                                AIR SEA DIR/SP/G                  HT/PER
                 (UTC)          (F)     (DEG/KT/KT) (MB)    (MI)  (FT/S)
NY HARB ENTRANCE 1200            33 47  350/ 12/ 14 1024.8          1/ 3
4S FIRE IS       1200               46                N/A           1/10
20S FIRE ISLAND  1100            36 49              1024.1          2/ 3
23SW MTP         1200                                 N/A           2/ 3
HUDSON CANYON    1200            38 55  320/  8/ 14 1023.2          3/ 5
EXECUTION ROCKS  1100            32 41   10/ 10/ 16   N/A
WESTERN LI SOUND 1100            31     340/ 10/ 12   N/A           1
CENTRAL LI SOUND 1100            30 44  350/ 12/ 16   N/A           1/ 2
EASTERN LI SOUND NOT AVBL
ROBBINS REEF     1200            32     230/  5/  8 1023.6
$$


>>>>>>>>>>>>>>>>>>>>>>>>>>>> KEY <<<<<<<<<<<<<<<<<<<<<<<<<<<
>                                                          <
>     SKY/WX - SKY CONDITION/PRESENT WEATHER               <
>     TMP    - TEMPERATURE IN FAHRENHEIT                   <
>     DP     - DEWPOINT IN FAHRENHEIT                      <
>     RH     - RELATIVE HUMIDITY IN PERCENT                <
>     WIND   - DIRECTION AND SPEED IN MPH                  <
>     PRES   - MEAN SEA LEVEL PRESSURE IN INCHES OF HG     <
>     WCI    - WIND CHILL INDEX                            <
>     VSB    - VISIBILITY IN MILES                         <
>     HX     - HEAT INDEX                                  <
>     TC     - TEMPERATURE IN CELSIUS                      <
>     VRB    - VARIABLE WIND DIRECTION                     <
>                                                          <
>>>>>>>>>>>>>>>>>>>>>>>>>>>> KEY <<<<<<<<<<<<<<<<<<<<<<<<<<<





USA.gov is the U.S. government's official web portal to all federal, state and local government web resources and services.